STARLINK-5232 (55675 NORAD) Tracking and Keplerian Element Data

This shows tracking and keplerian element data for the satellite.

Feedback or suggestion? Click here.




ElementValue
Catalog55675
NameSTARLINK-5232
Epoch Orbit130
Epoch Day62.91667824
Epoch Year2023
RAAN110.1821
Inclination70
Eccentricity0.000351
Argument of Perigee269.3152
Mean Anonmoly341.1452
Mean Motion15.75270434
Decay Rate-0.00973142
L11 55675U 23021AZ 23062.91667824 -.00973142 00000+0 -72245-2 0 9991
L22 55675 70.0000 110.1821 0003510 269.3152 341.1452 15.75270434 1300



Live tracking and technical data element details for STARLINK-5232 (NORAD 55675). STARLINK-5232 can be tracked NOW for your location showing map with azimuth and elevation plus other details from your city location.







IsCatalogInMostPopularTable: catalog: 55675, numindb: 1
Update: records affected: 1



GetName: 55675 STARLINK-5232

Hit Count: updated at: Mon, 20 Mar 2023 12:28:57 GMT